This demonstration page uses our WeatherBlox Daily Observations layout. Learn more.

Left ArrowRight Arrow

Hourly Observations for May 1, 2020

Temp ( °F °C ) Dew Point ( °F °C ) Humidity (%) Winds ( mph kmh ) Pressure ( in mb ) Visibility ( mi km ) Precip ( " mm )
12:56 am 00:56 Clear 59 15 44 6.7 58 58 SSE 13 20 29.76 1008 10 16 0.00 0.00
1:56 am 01:56 Clear 60 15.6 45 7.2 58 58 S 12 19 29.74 1007 10 16 0.00 0.00
2:56 am 02:56 Clear 60 15.6 45 7.2 58 58 SSW 5 7 29.75 1008 10 16 0.00 0.00
3:56 am 03:56 Mostly Clear 59 15 46 7.8 62 62 S 6 9 29.76 1008 10 16 0.00 0.00
4:56 am 04:56 Clear 58 14.4 46 7.8 65 65 S 6 9 29.73 1007 10 16 0.00 0.00
5:56 am 05:56 Clear 56 13.3 46 7.8 70 70 SE 6 9 29.72 1007 10 16 0.00 0.00
6:56 am 06:56 Sunny 54 12.2 46 7.8 75 75 SSE 10 17 29.72 1006 10 16 0.00 0.00
7:56 am 07:56 Sunny 57 13.9 46 7.8 67 67 SW 6 9 29.76 1008 10 16 0.00 0.00
8:56 am 08:56 Sunny 60 15.6 47 8.3 62 62 SW 7 11 29.77 1008 10 16 0.00 0.00
9:56 am 09:56 Sunny 64 17.8 48 8.9 56 56 SW 7 11 29.77 1008 10 16 0.00 0.00
10:56 am 10:56 Sunny 72 22.2 50 10 46 46 WNW 6 9 29.75 1008 10 16 0.00 0.00
11:56 am 11:56 Sunny 79 26.1 50 10 36 36 NNW 10 17 29.75 1008 10 16 0.00 0.00
12:56 pm 12:56 Sunny 82 27.8 51 10.6 34 34 NNW 7 11 29.75 1007 10 16 0.00 0.00
1:56 pm 13:56 Sunny 85 29.4 50 10 30 30 NNW 16 26 29.74 1007 10 16 0.00 0.00
2:56 pm 14:56 Sunny 86 30 52 11.1 31 31 N 17 28 29.75 1007 10 16 0.00 0.00
3:56 pm 15:56 Sunny 86 30 51 10.6 30 30 N 15 24 29.74 1007 10 16 0.00 0.00
4:56 pm 16:56 Sunny 86 30 48 8.9 27 27 NNE 8 13 29.74 1007 10 16 0.00 0.00
5:56 pm 17:56 Sunny 85 29.4 48 8.9 28 28 N 12 19 29.76 1008 10 16 0.00 0.00
6:56 pm 18:56 Sunny 83 28.3 48 8.9 30 30 N 9 15 29.77 1008 10 16 0.00 0.00
7:56 pm 19:56 Sunny 79 26.1 47 8.3 32 32 NNE 10 17 29.77 1008 10 16 0.00 0.00
8:56 pm 20:56 Clear 69 20.6 45 7.2 42 42 NNE 12 19 29.80 1009 10 16 0.00 0.00
9:56 pm 21:56 Clear 66 18.9 44 6.7 45 45 NNE 10 17 29.85 1011 10 16 0.00 0.00
10:56 pm 22:56 Clear 66 18.9 47 8.3 50 50 N 15 24 29.87 1011 10 16 0.00 0.00
11:56 pm 23:56 Clear 67 19.4 46 7.8 47 47 NNE 20 31 29.87 1012 10 16 0.00 0.00

Powered by AerisWeather